Milan, Italy

6:29 AM CET on December 08, 2016 (GMT +0100)
Malpensa

Weather History for LIMC - December, 2013

Change the Weather History Date:

Thursday, December 5, 2013

  Actual Average Record
Temperature  
Mean Temperature 36 °F -  
Max Temperature 51 °F 44 °F 57 °F (2003)
Min Temperature 21 °F 26 °F 21 °F (2013)
Degree Days  
Heating Degree Days 29    
Moisture  
Dew Point 27 °F    
Average Humidity 79    
Maximum Humidity 100    
Minimum Humidity 41    
Precipitation  
Precipitation 0.00 in 0.07 in - ()
Sea Level Pressure  
Sea Level Pressure 30.14 in    
Wind  
Wind Speed 2 mph ()    
Max Wind Speed 6 mph    
Max Gust Speed -    
Visibility 4.4 miles    
Events      
Averages and records for this station are not official NWS values.
T = Trace of Precipitation, MM = Missing Value Source: Averaged Metar Reports

Daily Weather History Graph

Daily Weather History Graph

Search for Another Location

Airport or City:

Trip Planner

Search our weather history database for the weather conditions in past years. The results will help you decide how hot, cold, wet, or windy it might be!

Date:

Astronomy

Dec. 05, 2013 Rise Set
Actual Time 7:49 AM CET 4:41 PM CET
Civil Twilight 7:15 AM CET 5:15 PM CET
Nautical Twilight 6:38 AM CET 5:52 PM CET
Astronomical Twilight 6:02 AM CET 6:28 PM CET
Moon 9:52 AM CET (12/5) 7:47 PM CET (12/5)
Length of Visible Light 9h 59m
Length of Day
8h 51m
Waxing Crescent, 9% of the Moon is Illuminated
Dec 5
Waxing Crescent
Dec 9
First Quarter
Dec 17
Full
Dec 25
Last Quarter
Jan 1
New

Hourly Weather History & Observations

Time (CET) Temp. Windchill Dew Point Humidity Pressure Visibility Wind Dir Wind Speed Gust Speed Precip Events Conditions
12:20 AM 23.0 °F - 21.2 °F 93% 30.18 in - Variable 1.2 mph - N/A   Clear
12:50 AM 23.0 °F - 23.0 °F 100% 30.18 in - Variable 1.2 mph - N/A   Clear
1:20 AM 23.0 °F - 21.2 °F 93% 30.15 in - Calm Calm - N/A   Clear
1:50 AM 23.0 °F - 21.2 °F 93% 30.15 in - North 2.3 mph - N/A   Clear
2:20 AM 23.0 °F - 21.2 °F 93% 30.15 in - Variable 2.3 mph - N/A   Clear
2:50 AM 23.0 °F - 21.2 °F 93% 30.15 in - Calm Calm - N/A   Clear
3:20 AM 23.0 °F - 19.4 °F 86% 30.15 in - NE 2.3 mph - N/A   Clear
3:50 AM 23.0 °F - 21.2 °F 93% 30.15 in - NNE 2.3 mph - N/A   Clear
4:20 AM 23.0 °F - 21.2 °F 93% 30.15 in - Variable 1.2 mph - N/A   Clear
4:50 AM 23.0 °F - 23.0 °F 100% 30.15 in - NE 2.3 mph - N/A   Clear
5:20 AM 21.2 °F - 19.4 °F 93% 30.15 in - Variable 1.2 mph - N/A   Clear
5:50 AM 23.0 °F - 23.0 °F 100% 30.15 in - Variable 1.2 mph - N/A   Clear
6:20 AM 21.2 °F - 19.4 °F 93% 30.15 in - Variable 2.3 mph - N/A   Clear
6:50 AM 23.0 °F - 21.2 °F 93% 30.15 in - Variable 2.3 mph - N/A   Clear
7:20 AM 26.6 °F - 24.8 °F 93% 30.15 in - Variable 2.3 mph - N/A   Clear
7:50 AM 26.6 °F 22.6 °F 26.6 °F 100% 30.15 in - North 3.5 mph - N/A   Clear
8:20 AM 26.6 °F - 26.6 °F 100% 30.15 in - Variable 1.2 mph - N/A   Clear
8:50 AM 30.2 °F - 28.4 °F 93% 30.18 in - Variable 2.3 mph - N/A   Clear
9:20 AM 35.6 °F 32.8 °F 32.0 °F 87% 30.18 in - NNE 3.5 mph - N/A   Clear
9:50 AM 39.2 °F - 32.0 °F 75% 30.18 in - Variable 2.3 mph - N/A   Clear
10:20 AM 41.0 °F 38.0 °F 30.2 °F 65% 30.21 in - East 4.6 mph - N/A   Clear
10:50 AM 44.6 °F 42.2 °F 30.2 °F 57% 30.21 in - Variable 4.6 mph - N/A   Clear
11:20 AM 46.4 °F 44.3 °F 30.2 °F 53% 30.21 in - East 4.6 mph - N/A   Clear
11:50 AM 48.2 °F - 30.2 °F 50% 30.18 in - East 3.5 mph - N/A   Clear
12:20 PM 50.0 °F - 30.2 °F 47% 30.18 in - ESE 3.5 mph - N/A   Clear
12:50 PM 50.0 °F - 32.0 °F 50% 30.18 in - Variable 2.3 mph - N/A   Clear
1:20 PM 51.8 °F - 32.0 °F 47% 30.18 in - ESE 3.5 mph - N/A   Clear
1:50 PM 51.8 °F - 32.0 °F 47% 30.15 in 4.3 mi SE 3.5 mph - N/A   Unknown
2:20 PM 51.8 °F - 30.2 °F 44% 30.15 in 4.3 mi ESE 4.6 mph - N/A   Unknown
2:50 PM 51.8 °F - 30.2 °F 44% 30.15 in 4.3 mi East 3.5 mph - N/A   Unknown
3:20 PM 51.8 °F - 28.4 °F 41% 30.12 in 4.3 mi East 4.6 mph - N/A   Unknown
3:50 PM 51.8 °F - 30.2 °F 44% 30.12 in 4.3 mi ESE 3.5 mph - N/A   Unknown
4:20 PM 48.2 °F - 32.0 °F 54% 30.12 in 4.3 mi SSE 2.3 mph - N/A   Unknown
4:50 PM 44.6 °F - 32.0 °F 61% 30.12 in 4.3 mi South 2.3 mph - N/A   Unknown
5:20 PM 41.0 °F - 32.0 °F 70% 30.12 in 4.3 mi SW 1.2 mph - N/A   Unknown
5:50 PM 37.4 °F - 32.0 °F 81% 30.12 in 3.1 mi Variable 1.2 mph - N/A   Mist
6:20 PM 33.8 °F 30.8 °F 28.4 °F 81% 30.12 in 3.1 mi North 3.5 mph - N/A   Mist
6:50 PM 32.0 °F 27.5 °F 28.4 °F 87% 30.12 in 3.1 mi North 4.6 mph - N/A   Mist
7:20 PM 30.2 °F - 26.6 °F 86% 30.12 in 5.0 mi NE 2.3 mph - N/A   Unknown
7:50 PM 30.2 °F 26.7 °F 28.4 °F 93% 30.12 in 5.0 mi North 3.5 mph - N/A   Unknown
8:20 PM 30.2 °F 25.4 °F 30.2 °F 100% 30.09 in 5.0 mi North 4.6 mph - N/A   Unknown
8:50 PM 28.4 °F 24.6 °F 24.8 °F 86% 30.09 in 5.0 mi North 3.5 mph - N/A   Unknown
9:20 PM 28.4 °F - 26.6 °F 93% 30.09 in 5.0 mi Variable 1.2 mph - N/A   Unknown
9:50 PM 28.4 °F 22.2 °F 24.8 °F 86% 30.09 in 5.0 mi North 5.8 mph - N/A   Unknown
10:20 PM 28.4 °F 23.3 °F 24.8 °F 86% 30.06 in 5.0 mi North 4.6 mph - N/A   Unknown
10:50 PM 26.6 °F 22.6 °F 24.8 °F 93% 30.06 in 5.0 mi North 3.5 mph - N/A   Unknown
11:20 PM 26.6 °F 22.6 °F 24.8 °F 93% 30.06 in - North 3.5 mph - N/A   Clear
11:50 PM 24.8 °F 20.5 °F 21.2 °F 86% 30.04 in - North 3.5 mph - N/A   Clear